STARLINK-3359, 51148

Orbit data source: Space-Track

STARLINK-3359, 51148 is a payload satellite owned by SpaceX/Seattle (US) in LEO that was launched on Wed, 19 Jan 2022 UTC via an FALCON 9 launch vehicle from the Air Force Eastern Test Range (AFETR). Payload-class satellites include a variety of spacecraft equipped with specific instruments for various scientific and technological missions. These include communications satellites like Starlink; space stations such as the ISS; scientific satellites like the Hubble; Earth observation satellites from companies like Planet Labs, Umbra, and HawkEye 360; GPS; miniature CubeSats for education and research; and military/defense satellites.

Loading next visibility...
Identifier
51148, 2022-005AW
Orbit
LEO
Country
Flag of USUS
Related business
Manufacturer
SpaceX/Seattle
Mission
Operational Commercial Communications
Bus & Motor
STARLINK, Unknown motor
Mass
297 kg wet, ~275 kg dry
Launch date (UTC)
2022-01-19 (4 years ago)
Launch vehicle
FALCON 9
Launch site
Air Force Eastern Test Range (AFETR)
Object type
Payload
Rocket body
Debris
Shape & HBR
Box + 1 Pan, 10.1 m
Radar Cross Section
13.562 m², Large (>1 m²)

Expand to show TLE details & history
Last TLE update: 14 hours ago

TLE from 14 hours ago
0 STARLINK-3359
1 51148U 22005AW  26094.25047352  .00017051  00000-0  10473-2 0  9998
2 51148  53.2164 194.4077 0000569 310.4989  49.5954 15.10197382232457
Epoch: 2026-04-04T06:00Z
TLE epoch observation values (Epoch: 2026-04-04T06:00:40.912Z)
Latitude
-0.00001°
Longitude
-88.33572°
Altitude
536.24 km
Speed
7.596 km/s
True Right ascension
12h 57m 37s
True Declination
0° 00' 00"
Sunlit
Object was in full shadow at epoch
Visualization orbit readout
Latitude
Unknown
Longitude
Unknown
Altitude
Unknown
Speed
Unknown
Apparent Right ascension
Unknown
Apparent Declination
Unknown
Sunlit
N/A
Visualization observer readout
Local Sidereal Time
01:55:05
Azimuth
Unknown
Elevation
Unknown
Doppler factor
Unknown
Orbital elements
Apogee altitude
536.236 km
Perigee altitude
535.449 km
Semi-major axis
6,913.98 km
Eccentricity
0.00006
Inclination
53.2164°
RAAN
194.4077°
Arg. of periapsis
310.4989°
True anomaly
49.60037°
Mean anomaly
49.5954°
Eccentric anomaly
49.59788°
Mean motion
3.7753 °/min
Orbital period
95.36 mins
BSTAR
0.0010473
Loading maneuver chart data...
Computing Atmospheric mass density...
Loading historical data...
Loading historical data...
Loading historical data...
Loading historical data...
Loading historical data...
Loading historical data...
Loading historical data...

Documentation

Showing up to 5 results
|